User: anonymous   Login
Location: Guayaquil
(2.1667°S, 79.9000°W)
Time: 15:36:32
(UTC-05:00)
Language:

NEE 01 PEGASUS - Orbit

View from above orbital plane
View from above orbital plane
View from above satellite
View from above satellite

Ground track
Ground track

The orbit data is extracted from the following two-line orbital elements,

1 39151U 13018B   17328.22538339  .00000297  00000-0  46451-4 0  9990
2 39151  97.9816  58.7255 0015871 250.5796 109.3701 14.79813601247205
Epoch (UTC): 24 November 2017 05:24:33
Eccentricity: 0.0015871
inclination: 97.9816°
perigee height: 619 km
apogee height: 641 km
right ascension of ascending node: 58.7255°
argument of perigee: 250.5796°
revolutions per day: 14.79813601
mean anomaly at epoch: 109.3701°
orbit number at epoch: 24720

The dashed part of the orbit path shows where the satellite is in the earth's shadow,  

DLR